N1964W KPHL-KJWN

Flight info

Callsign N1964W
Flight time N/A
Altitude 43000
Route MXE PENSY J110 FLIRT J6 HVQ YOCKY GROAT
Aircraft GLF6/M-SBDE2E3FGHIJ4J5M1RWXY/LB1D1

Departure

Time 2026-04-30 22:18
Airport Philadelphia International Airport (KPHL)

Arrival

Time N/A
Airport John C Tune Airport (KJWN)
Time Latitude Longitude Altitude Speed Heading
2026-04-30 21:21 39.86649 -75.23535 16 ft 0 kts 112°
2026-04-30 22:12 39.86649 -75.23534 16 ft 0 kts 112°
2026-04-30 22:13 39.86649 -75.23536 16 ft 1 kts 115°
2026-04-30 22:13 39.86659 -75.23548 16 ft 2 kts 167°
2026-04-30 22:14 39.86673 -75.23553 16 ft 2 kts 139°
2026-04-30 22:14 39.86680 -75.23570 16 ft 2 kts 81°
2026-04-30 22:14 39.86676 -75.23589 16 ft 1 kts 76°
2026-04-30 22:14 39.86675 -75.23592 16 ft 0 kts 76°
2026-04-30 22:16 39.86676 -75.23589 16 ft 1 kts 76°
2026-04-30 22:16 39.86687 -75.23530 16 ft 10 kts 77°
2026-04-30 22:17 39.86759 -75.23354 15 ft 5 kts 10°
2026-04-30 22:17 39.86808 -75.23364 14 ft 9 kts 349°
2026-04-30 22:17 39.86853 -75.23660 13 ft 57 kts 257°
2026-04-30 22:18 39.86699 -75.24463 17 ft 134 kts 257°
2026-04-30 22:18 39.86024 -75.27616 1538 ft 215 kts 257°
2026-04-30 22:19 39.85654 -75.31113 2980 ft 211 kts 281°
2026-04-30 22:19 39.85940 -75.33144 3785 ft 248 kts 283°
2026-04-30 22:19 39.87169 -75.37473 5282 ft 260 kts 294°
2026-04-30 22:20 39.87896 -75.39599 6017 ft 260 kts 294°
2026-04-30 22:20 39.88948 -75.44154 8029 ft 273 kts 282°
2026-04-30 22:20 39.89305 -75.46437 9739 ft 267 kts 281°
2026-04-30 22:21 39.89643 -75.48876 10508 ft 295 kts 279°
2026-04-30 22:21 39.90007 -75.51751 10852 ft 336 kts 278°
2026-04-30 22:21 39.90360 -75.54652 12571 ft 330 kts 278°
2026-04-30 22:21 39.90705 -75.57564 14085 ft 330 kts 277°
2026-04-30 22:22 39.91051 -75.60524 15371 ft 337 kts 277°
2026-04-30 22:22 39.91394 -75.63491 16700 ft 341 kts 276°
2026-04-30 22:22 39.91737 -75.66537 17977 ft 346 kts 274°
2026-04-30 22:22 39.91763 -75.69633 19250 ft 349 kts 266°
2026-04-30 22:23 39.91698 -75.72768 20545 ft 354 kts 266°
2026-04-30 22:23 39.91634 -75.75963 21831 ft 359 kts 266°
2026-04-30 22:23 39.91568 -75.79223 23015 ft 366 kts 266°
2026-04-30 22:23 39.91501 -75.82516 24258 ft 370 kts 266°
2026-04-30 22:24 39.91432 -75.85885 25320 ft 378 kts 266°
2026-04-30 22:24 39.91361 -75.89324 26406 ft 385 kts 266°
2026-04-30 22:24 39.91287 -75.92812 27428 ft 392 kts 266°
2026-04-30 22:24 39.91212 -75.96335 28377 ft 399 kts 266°
2026-04-30 22:25 39.91133 -75.99972 29349 ft 405 kts 266°
2026-04-30 22:25 39.91054 -76.03602 30297 ft 410 kts 266°
2026-04-30 22:25 39.90971 -76.07341 31044 ft 417 kts 266°
2026-04-30 22:25 39.90886 -76.11123 32042 ft 416 kts 266°
2026-04-30 22:26 39.90724 -76.18704 33851 ft 415 kts 268°
2026-04-30 22:26 39.90886 -76.22495 34506 ft 417 kts 271°
2026-04-30 22:26 39.91059 -76.26215 35301 ft 413 kts 271°
2026-04-30 22:27 39.91222 -76.29937 36007 ft 412 kts 271°
2026-04-30 22:27 39.91383 -76.33679 36630 ft 412 kts 271°
2026-04-30 22:27 39.91696 -76.41165 37769 ft 414 kts 271°
2026-04-30 22:28 39.92005 -76.48648 38954 ft 416 kts 271°
2026-04-30 22:28 39.92157 -76.52372 39558 ft 417 kts 271°
2026-04-30 22:29 39.92610 -76.63676 41349 ft 418 kts 272°
2026-04-30 22:29 39.92750 -76.67445 41931 ft 417 kts 270°
2026-04-30 22:30 39.87837 -76.81197 43034 ft 444 kts 241°
2026-04-30 22:31 39.82838 -76.91874 43035 ft 476 kts 241°
2026-04-30 22:32 39.74144 -77.10339 43030 ft 480 kts 241°
2026-04-30 22:33 39.65417 -77.28769 43030 ft 480 kts 241°
2026-04-30 22:35 39.56685 -77.47100 43045 ft 480 kts 241°
2026-04-30 22:36 39.47890 -77.65458 43046 ft 480 kts 240°
2026-04-30 22:37 39.40845 -77.80087 43058 ft 481 kts 240°
2026-04-30 22:38 39.34452 -77.95174 43049 ft 479 kts 245°
2026-04-30 22:39 39.29899 -78.06640 43064 ft 479 kts 245°
2026-04-30 22:40 39.20754 -78.29518 43076 ft 477 kts 245°
2026-04-30 22:41 39.13154 -78.48398 43058 ft 476 kts 246°
2026-04-30 22:43 39.03976 -78.71050 43066 ft 476 kts 245°
2026-04-30 22:44 38.97850 -78.86073 43089 ft 475 kts 245°
2026-04-30 22:45 38.88649 -79.08500 43077 ft 474 kts 245°
2026-04-30 22:47 38.81867 -79.31809 43061 ft 466 kts 259°
2026-04-30 22:48 38.78963 -79.47907 43038 ft 465 kts 259°
2026-04-30 22:49 38.74570 -79.72008 43100 ft 463 kts 258°
2026-04-30 22:51 38.70145 -79.95985 43085 ft 462 kts 258°
2026-04-30 22:52 38.67913 -80.07965 43093 ft 461 kts 258°
2026-04-30 22:53 38.64938 -80.23831 43093 ft 461 kts 258°
2026-04-30 22:53 38.62688 -80.35734 43108 ft 460 kts 258°
2026-04-30 22:55 38.58907 -80.55576 43109 ft 460 kts 259°
2026-04-30 22:56 38.55868 -80.71395 43134 ft 461 kts 258°
2026-04-30 22:57 38.52032 -80.91185 43118 ft 460 kts 258°
2026-04-30 22:58 38.48942 -81.06988 43119 ft 460 kts 258°
2026-04-30 22:59 38.44279 -81.30604 43135 ft 459 kts 258°